Location: New Plymouth
(39.0670°S, 174.0830°E)
Time: 10:14:44
(UTC+12:00)

NOAA 19 - Pass Details

Date: 22 August 2019
Orbit: 840 x 862 km, 99.2° (Epoch: 20 September)

Event Time Altitude Azimuth Distance (km) Brightness Sun altitude
Rises 18:48:23 0° 177° (S) 3,457 8.3 -11.6°
Reaches altitude 10° 18:51:01 10° 187° (S) 2,517 7.7 -12.1°
Maximum altitude 18:55:48 30° 246° (WSW) 1,504 7.2 -13.0°
Drops below altitude 10° 19:00:34 10° 305° (NW) 2,503 8.6 -14.0°
Sets 19:03:12 0° 315° (NW) 3,434 9.2 -14.5°
